IUS R/B(2), 16119

Orbit data source: Space-Track

IUS R/B(2), 16119 is space debris in GEO originally from a launch on Thu, 03 Oct 1985 UTC launched from the Air Force Eastern Test Range (AFETR). Debris objects in space refer to the collection of defunct objects orbiting the Earth. Examples of debris include non-operational satellites, rocket bodies, and fragments generated from explosions, collisions, or faulty payload assembly.

Loading next visibility...
Identifier
16119, 1985-092E
Orbit
GEO
Country
Flag of USUS
Related business
Manufacturer
UTC CSD
Mission
Spacecraft
Bus & Motor
ORBUS 6, Unknown motor
Mass
~1,100 kg wet, ~1,100 kg dry
Launch date (UTC)
1985-10-03 (41 years ago)
Launch vehicle
Unknown
Launch site
Air Force Eastern Test Range (AFETR)
Object type
Payload
Rocket body
Debris
Shape & HBR
SPHERE + CONE, 1.1 m
Radar Cross Section
Medium (>0.1 m² and <1 m²)

Expand to show TLE details & history
Last TLE update: 18 hours ago

TLE from 18 hours ago
0 IUS R/B(2)
1 16119U 85092E   26262.29505163  .00000050  00000-0  00000+0 0  9995
2 16119   9.8833 314.0066 0056526 184.6972 175.2359  1.01086257 27003
Epoch: 2026-09-19T07:04Z
TLE epoch observation values (Epoch: 2026-09-19T07:04:52.460Z)
Latitude
-0.00001°
Longitude
-150.42522°
Altitude
35,795.885 km
Speed
3.066 km/s
True Right ascension
20h 55m 59s
True Declination
0° 00' 00"
Sunlit
Object was in daylight at epoch
Visualization orbit readout
Latitude
Unknown
Longitude
Unknown
Altitude
Unknown
Speed
Unknown
Apparent Right ascension
Unknown
Apparent Declination
Unknown
Sunlit
N/A
Visualization observer readout
Local Sidereal Time
17:53:40
Azimuth
Unknown
Elevation
Unknown
Doppler factor
Unknown
Orbital elements
Apogee altitude
35,797.897 km
Perigee altitude
35,323.769 km
Semi-major axis
41,938.97 km
Eccentricity
0.00565
Inclination
9.8833°
RAAN
314.0066°
Arg. of periapsis
184.6972°
True anomaly
175.28932°
Mean anomaly
175.2359°
Eccentric anomaly
175.26265°
Mean motion
0.25271 °/min
Orbital period
1,424.58 mins
BSTAR
0
Loading maneuver chart data...
Computing Atmospheric mass density...
Loading historical data...
Loading historical data...
Loading historical data...
Loading historical data...
Loading historical data...
Loading historical data...
Loading historical data...
Other satellites on launch #92 in the year 1985 (1985-10-03 UTC)

Documentation

Showing up to 5 results
|